Regional Weather Roundup
Issued by NWS Charleston, SC

Current Version | Previous Version | Text Only | Print | Product List | Glossary Off
Versions: 1 2 3 4 5 6 7 8 9 10 11 12 13 14 15 16 17 18 19 20 21 22 23 24 25 26 27 28 29 30 31 32 33 34 35 36 37 38 39 40 41 42 43 44 45 46 47 48 49 50
000 ASUS42 KCHS 231027 RWRCHS REGIONAL WEATHER ROUNDUP NATIONAL WEATHER SERVICE CHARLESTON SC 600 AM EDT THU MAR 23 2017 NOTE: "FAIR" INDICATES FEW OR NO CLOUDS BELOW 12,000 FEET WITH NO SIGNIFICANT WEATHER AND/OR OBSTRUCTIONS TO VISIBILITY. NOT ALL STATIONS ARE QUALITY CONTROLLED. USE DATA WITH CAUTION... ESPECIALLY DEWPOINT OBSERVATIONS. SCZ027-030-031-034>040-042>050-231100- ...SOUTHEAST SOUTH CAROLINA... CITY SKY/WX TMP DP RH WIND PRES REMARKS N CHARLESTON CLEAR 49 37 63 NE12 30.38R WATERFRONT PRK N/A 54 44 69 E17 30.35R JOHNS ISLAND FAIR 54 41 62 NE17G23 30.37R PINOPOLIS N/A 46 37 71 E12 30.31R MONCKS CORNER FAIR 43 27 52 NE6 30.41R SUMMERVILLE FAIR 45 36 70 NE5 30.41R BEAUFORT MCAS CLEAR 52 42 69 NE10 30.35R BEAUFORT ARPT FAIR 54 43 66 NE17G24 30.35R HILTON HEAD IS NOT AVBL WALTERBORO SUNNY 46 37 71 NE9 30.39R ALLENDALE FAIR 50 39 66 VRB6 30.36R ...SOUTHERN MIDLANDS AND PEE DEE... CITY SKY/WX TMP DP RH WIND PRES REMARKS GEORGETOWN FAIR 43 36 75 N7 30.42R KINGSTREE FAIR 41 27 56 NE6 30.44R ORANGEBURG CLEAR 47 32 56 E10 30.40R BARNWELL FAIR 50 37 62 E9 30.38R AIKEN FAIR 43 36 75 NE6 30.42R MANNING FAIR 43 28 56 NE5 30.42R COLUMBIA PTCLDY 48 31 51 E15 30.41R SUMTER PTCLDY 43 31 63 E9 30.41R FLORENCE PTCLDY 37 30 75 NE8 30.45R WCI 31 MYRTLE BEACH PTCLDY 40 29 64 N10 30.45R WCI 33 N MYRTLE BEACH PTCLDY 39 30 70 N7 30.44R WCI 34 $$ GAZ063-065-086>088-099>101-113>116-118-119-134>141-150-231100- ...SOUTHEAST GEORGIA... CITY SKY/WX TMP DP RH WIND PRES REMARKS SAVANNAH ARPT PTCLDY 55 43 63 E12 30.32R HUNTER AAF MOCLDY 56 48 74 NE8 30.29R FORT STEWART CLOUDY 58 47 66 E10 30.28R STATESBORO PTCLDY 54 47 77 E6 30.34R SYLVANIA PTSUNNY N/A N/A N/A E10 30.36R CLAXTON PTSUNNY N/A N/A N/A NE8 30.32R ...CSRA...CENTRAL AND FAR SOUTHEAST GEORGIA... CITY SKY/WX TMP DP RH WIND PRES REMARKS THOMSON MOCLDY 48 34 59 MISG 30.42R AUGUSTA-BUSH PTCLDY 48 39 71 E6 30.37R AUGUSTA-DANIEL MOCLDY 51 38 60 E8 30.37R SWAINSBORO FAIR 54 45 71 E7 30.34R VIDALIA PTCLDY 55 50 82 NE9 30.31R EASTMAN CLOUDY 58 37 45 E7 30.32R HAZLEHURST PTSUNNY 58 55 87 E5 30.28R ALMA MOCLDY 57 53 86 NE7 30.27R WAYCROSS CLOUDY 61 59 92 E13 30.27R JESUP CLOUDY 61 50 67 E16 30.29R BAXLEY CLOUDY 59 59 100 E8 30.28R BRUNSWICK CLOUDY 61 55 82 NE14G26 30.28S SAINT SIMONS CLOUDY 62 55 77 NE18G30 30.26R $$ SCZ027-028-034-036>038-045-046-048>050-GAZ119-141-231100- ...LAKE AND SUPPLEMENTAL COASTAL OBSERVATIONS... STATION/POSITION TIME TEMP WIND PRES WAVE SWELL AIR SEA DIR/SP/G HT/PER HT/PER/DIR (UTC) (F) (DEG/KT/KT) (MB) (FT/S) (FT/S/D) WINYAH BAY 0945 52 70/ 18 1029.0R LAKE MURRAY 0950 46 30/ 3/ 6 1029.1R ACE BASIN NERRS 0930 53 40/ 5 1027.0S FORT PULASKI 1000 58 61 70/ 23/ 29 1026.6 SAPELO ISLAND 1000 60 50/ 16 1025.0 $$ ANZ835-935-AMZ111-154-330-350-352-354-370-450-454-472-231100- ...C-MAN AND BUOY OBSERVATIONS... STATION/POSITION TIME TEMP WIND PRES WAVE SWELL AIR SEA DIR/SP/G HT/PER HT/PER/DIR (UTC) (F) (DEG/KT/KT) (MB) (FT/S) (FT/S/D) BUOY 41004 0950 61 66 60/ 21/ 25 1026.0R 9/ 7 3/ 70/10 BUOY 41008 0950 62 62 50/ 21/ 25 1024.0R 7/ 7 2/ 20/12 FOLLY BEACH CMAN 1000 56 60/ 22/ 25 1028.6R CAPERS NEARSHORE 1008 55 70/ 21/ 31 1027.9R FRIPP NEARSHORE 1008 58 60 60/ 23/ 29 1026.9R STATION/POSITION TIME TEMP WIND PRES WAVE SWELL AIR SEA DIR/SP/G HT/PER HT/PER/DIR (UTC) (F) (DEG/KT/KT) (MB) (FT/S) (FT/S/D) 5E ST. MARYS GA 1000 63 N/A 5/ 7 2/100/11 FRYING PAN BUOY 1010 54 65 40/ 19/ 25 1029.8 BUOY 41025 0950 45 75 30/ 23/ 29 1031.2R 11/11 5/ 60/11 CAPE LOOKOUT NC 1000 44 30/ 17/ 20 1031.6R BUOY 41002 0950 61 72 30/ 19/ 23 1025.3R 9/10 8/ 20/10 BUOY 41010 NOT AVBL ST AUGUSTINE FL 1000 66 66 100/ 10/ 12 1023.4R $$

USA.gov is the U.S. government's official web portal to all federal, state and local government web resources and services.